This is the latest recevied weather packets stored in our database for station/object M0JUI-1. If no packets are shown the sender has not sent any weather packets the latest 10 day(s).
| Time | Temp. | Humidity | Pressure | Rain* | Wind** | Luminosity | Snow |
|---|---|---|---|---|---|---|---|
| 1788436497 | 20.56° C | 13% | 1015.7 hPa | 0 mm | - | 358 W/m² | - |
| 1788436197 | 20.56° C | 11% | 1015.8 hPa | 0 mm | - | 250 W/m² | - |
| 1788435897 | 20.56° C | 12% | 1015.5 hPa | 0 mm | - | 412 W/m² | - |
| 1788435597 | 20.56° C | 11% | 1015.7 hPa | 0 mm | - | 324 W/m² | - |
| 1788435297 | 20° C | 12% | 1015.7 hPa | 0 mm | - | 412 W/m² | - |
| 1788434998 | 19.44° C | 13% | 1015.7 hPa | 0 mm | - | 238 W/m² | - |
| 1788434697 | 20° C | 12% | 1015.7 hPa | 0 mm | - | 169 W/m² | - |
| 1788434385 | 20° C | 13% | 1015.7 hPa | 0 mm | - | 304 W/m² | - |
| 1788434085 | 20° C | 13% | 1015.7 hPa | 0 mm | - | 252 W/m² | - |
| 1788433785 | 20° C | 12% | 1015.5 hPa | 0 mm | - | 266 W/m² | - |
| 1788433473 | 20° C | 12% | 1015.5 hPa | 0 mm | - | 237 W/m² | - |
| 1788433173 | 19.44° C | 11% | 1015.5 hPa | 0 mm | - | 331 W/m² | - |
| 1788432874 | 20° C | 11% | 1015.6 hPa | 0 mm | - | 246 W/m² | - |
| 1788432549 | 20° C | 12% | 1015.6 hPa | 0 mm | - | 205 W/m² | - |
| 1788432249 | 20° C | 12% | 1015.7 hPa | 0 mm | - | 214 W/m² | - |
| 1788431950 | 20.56° C | 10% | 1015.7 hPa | 0 mm | - | 198 W/m² | - |
| 1788431649 | 20° C | 11% | 1015.6 hPa | 0 mm | - | 277 W/m² | - |
| 1788431349 | 20° C | 12% | 1015.5 hPa | 0 mm | - | 215 W/m² | - |
| 1788431050 | 20° C | 11% | 1015.4 hPa | 0 mm | - | 526 W/m² | - |
| 1788430749 | 20° C | 12% | 1015.5 hPa | 0 mm | - | 490 W/m² | - |
| 1788430449 | 20.56° C | 13% | 1015.5 hPa | 0 mm | - | 293 W/m² | - |
| 1788430149 | 19.44° C | 15% | 1015.4 hPa | 0 mm | - | 556 W/m² | - |
| 1788429849 | 19.44° C | 14% | 1015.6 hPa | 0 mm | - | 185 W/m² | - |
| 1788429538 | 20.56° C | 12% | 1015.4 hPa | 0 mm | - | 188 W/m² | - |
| 1788429237 | 20° C | 12% | 1015.3 hPa | 0 mm | - | 284 W/m² | - |
* Rain latest hour (hover to see other rain measurements)
** Current wind speed in m/s (hover to see current wind gust speed)